Flag for Canada Weather past 2 weeks in Charlottetown, Pr.Edward I, Canada

Now
32 °F

Snow flurries. Mostly cloudy.


Feels Like: 22 °F
Forecast: 32 / 36 °F
Wind: 13 mph from North

Location: Charlottetown

Current Time: Dec 20, 2014 at 6:37:28 AM

Latest Report: Dec 20, 2014 at 6:00 AM


Visibility: 15 mi

Pressure: 30.14 "Hg

Humidity: 93%

Dew point: 30 °F

Location of CharlottetownLocation

Historic Weather in Charlottetown — Graph

°F

Charlottetown temperature yesterday

Maximum temperature yesterday: 34 °F (at 8:00 AM)
Minimum temperature yesterday: 28 °F (at 10:00 PM)
Average temperature yesterday: 31 °F

Past Weeks' High & Low Weather Summary

 TemperatureHumidityPressure
High50 °F (Dec 11, 1:00 PM)100% (Dec 6, 6:00 PM)30.84 "Hg (Dec 6, 6:00 PM)
Low5 °F (Dec 8, 8:00 PM)62% (Dec 5, 5:00 AM)29.34 "Hg (Dec 18, 12:00 PM)
Average32 °F89%30.03 "Hg
* Reported Dec 5 5:00 AM — Dec 20 5:00 AM, Charlottetown, Weather by CustomWeather, © 2014

Note: Actual official high and low records may vary slightly from our data, if they occured in-between our weather recording intervals... More about our weather records

Advertising

Charlottetown weather history for previous 24 hours

 ConditionsComfort  
Time TempWeatherWind HumidityBarometerVisibility
5:00 AM
Dec 20
30 °FSnow flurries. Mostly cloudy.13 mph93%30.12 "Hg20 mi
4:48 AM30 °FSnow flurries. Mostly cloudy.9 mph93%30.12 "Hg12 mi
4:00 AM30 °FSnow flurries. Mostly cloudy.14 mph93%30.10 "Hg15 mi
3:00 AM30 °FSnow flurries. Overcast.12 mph86%30.08 "Hg15 mi
2:00 AM30 °FSnow flurries. Overcast.8 mph86%30.05 "Hg10 mi
1:00 AM28 °FSnow flurries. Overcast.12 mph93%30.03 "Hg15 mi
12:00 AM28 °FSnow flurries. Overcast.14 mph86%30.01 "Hg15 mi
11:00 PM
Dec 19
28 °FOvercast.12 mph86%29.99 "Hg15 mi
10:00 PM28 °FOvercast.15 mph86%29.95 "Hg15 mi
9:00 PM30 °FLight freezing rain. Mostly cloudy.14 mph80%29.92 "Hg12 mi
8:00 PM30 °FLight freezing rain. Ice fog.13 mph93%29.89 "Hg6 mi
7:00 PM30 °FSnow flurries. Overcast.15 mph86%29.85 "Hg15 mi
6:00 PM30 °FSnow flurries. Overcast.10 mph93%29.82 "Hg2 mi
5:00 PM30 °FSnow flurries. Mostly cloudy.12 mph93%29.79 "Hg4 mi
4:50 PM30 °FSnow flurries. Mostly cloudy.13 mph93%29.79 "Hg2 mi
4:00 PM30 °FSnow flurries. Ice fog.13 mph93%29.76 "Hg1 mi
3:00 PM30 °FSnow flurries. Mostly cloudy.9 mph93%29.72 "Hg1 mi
2:00 PM30 °FSnow flurries. Mostly cloudy.16 mph93%29.69 "Hg1 mi
1:46 PM30 °FSnow flurries. Mostly cloudy.13 mph93%29.69 "Hg6 mi
1:00 PM30 °FSnow flurries. Low clouds.10 mph93%29.67 "Hg2 mi
12:00 PM32 °FSnow flurries. Mostly cloudy.17 mph93%29.66 "Hg1 mi
11:00 AM32 °FSnow flurries. Mostly cloudy.17 mph93%29.65 "Hg1 mi
10:45 AM32 °FSnow flurries. Overcast.15 mph93%29.65 "Hg1 mi
10:00 AM32 °FLight rain. Ice fog.14 mph93%29.62 "Hg6 mi
9:00 AM34 °FSleet. Fog.13 mph93%29.58 "Hg4 mi
8:00 AM34 °FLight snow. Fog.14 mph100%29.54 "Hg3 mi
7:00 AM32 °FLight snow. Mostly cloudy.5 mph100%29.50 "Hg8 mi
6:00 AM32 °FLight snow. Mostly cloudy.2 mph100%29.47 "Hg8 mi
Weather by CustomWeather, © 2014

See weather overviewHow to use our weather pages